Время (UTC), дата Ветер
(°,м/с) 
Видим.   Явления Облачность Т
(°С)
Тd
(°С)
f(%) Тe
(°С)
Pmin
(гПа)
dP
(гПа)
Po
(мм)
O2
(г/м3)
Тmin Tmax R s Состояние
почвы
00 01.02.11 360 (С) 10 км  {снег}  8/0 средняя 
[Ac cast]
-14 -16 85 -14  1018  0.9  752  321           
03 01.02.11 тихо ()   10 км    3/0 средняя 
[Ac cast]
-17.5 -19.4 85 -18  1018.7  0.3  752  325           
06 01.02.11 тихо ()   10 км  слаб. снег [диам. изморози 1 мм]  10/10 600 м 
[Sc]
-15.4 -16.7 90 -15  1019  0.5  752  323  -17.9    0.0     
09 01.02.11 180 (Ю) 10 км  слаб. снег [диам. изморози 2 мм]  9/9 600 м 
[Sc]
-14.7 -16.7 85 -15  1019.2  0.2  752  322           
12 01.02.11 180 (Ю) 10 км  {снег}  8/0 средняя 
[Ac cast]
-14.9 -17.6 80 -15  1018  -1.2  752  322           
15 01.02.11 160 (Ю) 10 км    ясно 
-17.2 -18.4 91 -20  1016.6  -1.5  750  324           
18 01.02.11 160 (Ю) 10 км    ясно 
-19.1 -20.3 90 -19  1015.9  -0.8  750  326    -14.6  0.0     
00 02.02.11 170 (Ю) 10 км  [диам. изморози 6 мм]  ясно 
-23.4 -24.6 90 -26  1014.9  -0.5  749  332           
03 02.02.11 150 (ЮВ) 10 км    ясно 
-23.5 -25.3 85 -24  1014.1  -0.8  748  332           
06 02.02.11 150 (ЮВ) 10 км  [диам. изморози 9 мм]  10/0 средняя 
[Ac As]
-22.3 -24.1 84 -23  1014.4  0.3  749  330  -23.9         
09 02.02.11 180 (Ю) >10 км  [диам. изморози 9 мм]  8/0 средняя 
[Ac lent]
-17.7 -18.9 90 -18  1014  749  324           
12 02.02.11 150 (ЮВ) >10 км  слаб. снег [диам. изморози 9 мм]  10/0 средняя 
[Ac As]
-16.3 -17.6 90 -16  1014  749  322           
15 02.02.11 190 (Ю) 10 км  слаб. снег  10/10 300 м 
[Ac As]
-14.9 -16.2 90 -15  1014.1  0.2  749  320           
18 02.02.11 160 (Ю) 10 км  слаб. снег  10/10 600 м 
[Sc]
-14.5 -15.8 90 -15  1014.2  0.1  749  320    -14.9  0.0     
21 02.02.11 180 (Ю) 10 км  слаб. снег  10/10 600 м 
[Sc]
-12.4 -13.7 90 -12  1014.1  0.1  749  317           
00 03.02.11 170 (Ю) 10 км  {снег}  10/10 300 м 
[St]
-10.2 -10.8 95 -10  1014  0.1  749  315           
03 03.02.11 тихо ()   10 км  слаб. снег  10/0 средняя 
[As op]
-9.4 -10.1 95 -9  1013.8  -0.2  749  313           
06 03.02.11 тихо ()   >10 км  слаб. снег  10/0 средняя 
[As op]
-8.2 -9.2 92 -8  1013.7  749  312  -15.2    0.2     
09 03.02.11 180 (Ю) >10 км  в посл. час снег  10/0 средняя 
[As op]
-6.1 -8.4 84 -6  1013  -0.6  748  309           
12 03.02.11 170 (Ю) >10 км  слаб. снег  10/0 средняя 
[As op]
-6.4 -8.7 84 -6  1011.8  -1.2  747  309           
15 03.02.11 190 (Ю) 10 км  {снег}  10/0 средняя 
[As op]
-6.7 -9.5 81 -8  1011  -0.8  747  309           
18 03.02.11 230 (ЮЗ) 10 км  слаб. снег  10/0 средняя 
[As op]
-6.4 -9.2 80 -8  1010.8  -0.2  747  309    -6.1  0.0     
21 03.02.11 190 (Ю) 10 км  слаб. снег  10/0 средняя 
[As op]
-7 -9.1 85 -8  1010  -0.8  746  309           
00 04.02.11 190 (Ю) 10 км  в посл. час снег  10/0 средняя 
[As op]
-6.9 -8.5 88 -8  1009.8  -0.2  746  309           
03 04.02.11 190 (Ю) 10 км  слаб. снег  10/0 средняя 
[As op]
-6 -7.1 92 -7  1009.1  -0.6  745  308           
06 04.02.11 250 (З) 10 км  слаб. снег  10/0 средняя 
[As op]
-3.8 -4.3 96 -5  1008.8  -0.2  745  305  -7    0.6     
09 04.02.11 240 (ЮЗ) >10 км  слаб. снег  10/0 средняя 
[As op]
-1.9 -3.4 89 -3  1009.5  0.8  746  303           
12 04.02.11 250 (З) >10 км  слаб. снег  10/0 средняя 
[As op]
-1.8 -2.9 92 -1  1009.2  -0.3  746  303           
15 04.02.11 240 (ЮЗ) 10 км  слаб. снег  10/0 
[Sc]
-1.4 -2.5 92 -1  1008.8  -0.4  745  302           
18 04.02.11 240 (ЮЗ) 10 км  слаб. снег  10/10 600 м 
[Sc]
-1.9 -3 92 -3  1007.7  -1.1  745  302    -1.4     
21 04.02.11 220 (ЮЗ) 10 км  слаб. снег [диам. гололёда 0 мм]  10/10 600 м 
[Sc]
-2.6 -4.5 87 -2  1006.7  -1  744  303           
00 05.02.11 210 (ЮЗ) 10 км  слаб. снег [диам. гололёда 0 мм]  10/10 600 м 
[Sc]
-3.4 -6.2 81 -5  1004.5  -2.2  742  303           
03 05.02.11 200 (Ю) 4000 м  слаб. снег  10/10 600 м 
[Sc]
-4.1 -5.3 91 -4  1002.7  -1.8  741  304           
06 05.02.11 190 (Ю) 2000 м  снег  10/10 300 м 
[Ns]
-4.2 -5.1 93 -5  1001.2  -1.4  740  303  -4.2    0.6     
09 05.02.11 180 (Ю) 10 км  слаб. снег  10/10 300 м 
[Ns]
-3.9 -5.1 91 -3  999.8  -1.4  739  302           
12 05.02.11 180 (Ю) 0500 м  сильн. снег  10/10 200 м 
[Ns]
-3.5 -4.3 94 -5  998.6  -1.2  738  302           
15 05.02.11 180 (Ю) 10 км  {снег}  10/10 300 м 
[Sc]
-3.5 -4.9 90 -5  997.2  -1.3  737  301           
18 05.02.11 160 (Ю) 10 км  {снег}  10/10 600 м 
[Sc]
-5 -6 93 -6  995.3  -2.1  735  302    -3.5     
21 05.02.11 150 (ЮВ) 4000 м  снег  10/10 200 м 
[Ns]
-5.1 -5.8 95 -7  993.2  -2.1  734  302           
00 06.02.11 170 (Ю) 4000 м  снег  10/10 200 м 
[Ns]
-5.4 -6.1 95 -9  991.2  -3.4  732  302           
03 06.02.11 140 (ЮВ) 1000 м  снег  10/10 200 м 
[Ns]
-5.2 -5.9 95 -8  988.2  -3  730  300           
06 06.02.11 160 (Ю) 4000 м  слаб. снег  10/10 300 м 
[Ns]
-4.4 -5 95 -7  988  -0.1  730  299  -5.4       
09 06.02.11 180 (Ю) 10 км  слаб. снег  10/0 средняя 
[As op]
-3.6 -4.7 92 -5  987.8  -0.2  730  298           
12 06.02.11 160 (Ю) 10 км  слаб. снег  10/0 средняя 
[As op]
-3.8 -4.6 94 -5  987.7  -0.1  730  299           
15 06.02.11 160 (Ю) 10 км  {снег}  10/0 средняя 
[As op]
-5.3 -6.3 93 -7  989  1.2  731  301           
18 06.02.11 150 (ЮВ) 10 км  {снег}  10/10 600 м 
[Sc]
-7 -8.3 90 -7  989.4  0.3  731  303    -3.6     
21 06.02.11 110 (В) 10 км    10/10 300 м 
[Sc]
-7.1 -8.8 88 -7  989.9  0.5  731  303           
00 07.02.11 тихо ()   10 км  слаб. снег  10/10 300 м 
[Ns]
-7 -8.7 88 -7  990.1  0.2  731  303           
03 07.02.11 300 (СЗ) 4000 м  снег  10/10 300 м 
[Ns]
-6.8 -7.6 94 -6  990.9  0.8  732  303           
06 07.02.11 360 (С) 10 км  слаб. снег  10/0 средняя 
[As op]
-7 -8.3 90 -8  992.9  1.9  733  304  -7.6       
09 07.02.11 360 (С) >10 км  {снег}  10/10 600 м 
[Sc]
-7 -9.9 80 -10  994.3  1.4  734  305           
12 07.02.11 360 (С) >10 км  {снег}  3/1 600 м средняя 
[Sc|Ac cast]
-7.1 -11.9 69 -9  995.9  1.6  736  305           
15 07.02.11 360 (С) 10 км    ясно 
-8.5 -12.3 74 -10  998.1  737  308           
18 07.02.11 300 (СЗ) 10 км    4/0 средняя 
[Ac cast]
-8.8 -11.2 83 -9  999.2  1.1  738  308    -6.3  0.0     
21 07.02.11 320 (СЗ) 10 км  {снег}  10/0 средняя 
[As op]
-8.5 -10.8 84 -8  1000.1  0.9  739  308           
00 08.02.11 350 (С) 10 км  {снег}  10/0 средняя 
[As op]
-6.8 -9.7 80 -6  1001.1  1.2  740  307           
03 08.02.11 010 (С) 10 км  слаб. снег  10/10 600 м 
[Sc]
-6.6 -9.4 80 -6  1002.5  1.4  741  307           
06 08.02.11 330 (СЗ) >10 км  слаб. снег  8/3 600 м средняя 
[Sc|Ac cast]
-8.3 -10.6 83 -10  1003.8  1.2  741  309  -8.8    0.0     
09 08.02.11 310 (СЗ) >10 км    4/0 средняя 
[Ac cast]
-11 -14.9 73 -13  1005.6  1.5  743  313           
12 08.02.11 300 (СЗ) >10 км    10/4 300 м средняя 
[Sc|Ac As]
-11.8 -15.4 75 -15  1006.1  0.5  743  314           
15 08.02.11 300 (СЗ) 10 км  слаб. снег  10/10 600 м 
[Sc]
-13.4 -16.8 76 -17  1007  0.8  744  316           
18 08.02.11 тихо ()   10 км  {снег}  ясно 
-17.3 -19.9 80 -17  1006.9  -0.3  743  321    -6.6  0.0     
21 08.02.11 тихо ()   10 км    ясно 
-20.1 -22 85 -20  1006.2  -0.9  743  325           
00 09.02.11 160 (Ю) 10 км  [диам. изморози 1 мм]  10/0 средняя 
[As op]
-17.7 -19.6 85 -20  1004  -2  741  321           
03 09.02.11 110 (В) 10 км  [диам. изморози 4 мм]  10/0 средняя 
[As op]
-16.7 -17.9 90 -19  1001.1  -2.8  739  319           
06 09.02.11 120 (ЮВ) 10 км  слаб. снег [диам. изморози 5 мм]  10/10 600 м 
[Sc]
-15.2 -16.5 90 -15  998.8  -2.2  737  316  -21    0.0     
09 09.02.11 120 (ЮВ) 10 км  {снег} [диам. изморози 6 мм]  10/0 средняя 
[As op]
-13 -14.3 90 -15  996.2  -2.4  736  312           
12 09.02.11 100 (В) 10 км  слаб. снег  10/0 средняя 
[As op]
-12.6 -15.3 80 -17  994.1  -2.1  734  311           
15 09.02.11 100 (В) 2000 м  снег  10/10 200 м 
[Ns]
-13 -15 85 -16  993.6  -0.5  734  312           
18 09.02.11 090 (В) 4000 м    10/10 300 м 
[Ns]
-13.4 -16.1 80 -18  993.2  -0.4  733  312    -12.4  0.7     
21 09.02.11 040 (СВ) 10 км  слаб. снег  10/0 средняя 
[As op]
-13.8 -16.5 80 -17  993.2  733  313           
00 10.02.11 020 (С) 10 км  слаб. снег  10/0 средняя 
[As op]
-15.9 -18.6 80 -16  994.6  1.3  734  316           
03 10.02.11 050 (СВ) 10 км    10/0 средняя 
[As op]
-16.9 -19.5 80 -21  995.7  0.9  735  317           
06 10.02.11 050 (СВ) >10 км  {снег}  10/0 средняя 
[As op]
-16 -19.4 75 -20  997.4  1.9  736  317  -17.2    0.5     
09 10.02.11 060 (СВ) >10 км    6/0 средняя, верхняя 
[Ac lent|Cs]
-14.2 -18.5 70 -16  998.9  1.4  737  315           
12 10.02.11 040 (СВ) >10 км    10/0 средняя 
[Ac As]
-14.5 -18.8 70 -17  1000.6  1.7  739  316           
15 10.02.11 030 (СВ) 10 км    8/0 средняя 
[Ac lent]
-16.3 -19.7 75 -20  1002.2  1.5  740  319           
18 10.02.11 010 (С) 10 км    5/0 средняя 
[As trans]
-17.6 -20.2 80 -22  1003.5  1.2  741  321    -14.2       
21 10.02.11 360 (С) 10 км    9/0 средняя 
[As trans]
-18.4 -21 80 -21  1003.9  0.2  741  322           
00 11.02.11 360 (С) 10 км    9/0 средняя 
[Ac lent]
-19.2 -21.8 80 -22  1004.7  0.8  742  323           
03 11.02.11 020 (С) 10 км    ясно 
-20.1 -22.7 80 -23  1005.1  0.4  742  324           
06 11.02.11 020 (С) >10 км    ясно 
-20.3 -22.8 80 -23  1006.7  1.5  743  325  -20.3         
09 11.02.11 330 (СЗ) >10 км    ясно 
-17.4 -20.8 75 -18  1006.8  0.4  743  321           
12 11.02.11 280 (З) >10 км    ясно 
-15.2 -19.4 70 -15  1007.4  0.7  744  319           
15 11.02.11 300 (СЗ) 10 км    ясно 
-16.1 -19.5 75 -16  1008.8  1.3  745  320           
18 11.02.11 тихо ()   10 км    ясно 
-17.7 -21 75 -18  1010.3  1.4  746  323    -15       
21 11.02.11 350 (С) 10 км    ясно 
-19.7 -22.3 80 -20  1010.7  0.3  746  326           
00 12.02.11 350 (С) 10 км    ясно 
-21.3 -23.1 86 -22  1011.6  0.7  747  328           
03 12.02.11 тихо ()   10 км  [диам. изморози 1 мм]  ясно 
-21.7 -23.5 85 -22  1011.8  0.2  747  329           
06 12.02.11 тихо ()   >10 км    10/0 верхняя 
[Ci sp]
-22.3 -24.1 84 -22  1012.2  0.3  747  329  -24.3         
09 12.02.11 170 (Ю) >10 км    10/0 средняя, верхняя 
[Ac lent|Ci fib]
-18.9 -21.5 80 -19  1012.1  0.2  747  325           
12 12.02.11 150 (ЮВ) >10 км    10/0 средняя 
[As trans]
-19.8 -23.1 75 -20  1012.5  0.4  747  326           
15 12.02.11 160 (Ю) 10 км    10/0 верхняя 
[Ci fib]
-20 -23.3 75 -20  1012.7  0.2  748  327           
18 12.02.11 140 (ЮВ) 10 км    10/0 верхняя 
[Ci fib]
-19.1 -22.4 76 -19  1012.6  -0.1  747  325           
21 12.02.11 140 (ЮВ) 10 км  слаб. снег  10/0 средняя 
[As op]
-19.1 -21.7 80 -19  1012.5  -0.1  747  325           
00 13.02.11 130 (ЮВ) 10 км  слаб. снег  10/0 средняя 
[As op]
-18.3 -20.9 80 -21  1012.1  -0.4  747  324           
03 13.02.11 100 (В) 10 км  слаб. снег  8/0 средняя 
[As op]
-19.2 -21.8 80 -23  1011.3  -0.8  746  325           
06 13.02.11 100 (В) 10 км  слаб. снег  10/0 средняя 
[As op]
-18.1 -20.7 80 -22  1011.4  0.2  747  324  -20    0.0     
09 13.02.11 100 (В) 10 км  {снег}  9/0 средняя 
[As trans]
-15.8 -19.2 75 -20  1010.9  -0.4  746  321           
12 13.02.11 090 (В) 10 км  {снег}  8/0 средняя, верхняя 
[Ac lent|Ci fib]
-13.8 -18.1 70 -17  1010  -0.8  746  318           
15 13.02.11 090 (В) 10 км  слаб. снег  10/0 средняя 
[As op]
-14.4 -17.9 75 -19  1009.5  -0.6  745  318           
18 13.02.11 100 (В) 10 км  слаб. снег  10/0 средняя 
[As op]
-14 -16.7 80 -16  1008.9  -0.5  745  318    -13.4  0.2     
21 13.02.11 070 (В) 10 км  слаб. снег  10/0 средняя 
[As op]
-13.9 -16.6 80 -17  1008.4  -0.5  745  317           
00 14.02.11 100 (В) 10 км  слаб. снег  10/0 средняя 
[As op]
-14.4 -17.1 80 -17  1007.3  -1.1  744  318           
03 14.02.11 080 (В) 10 км  слаб. снег  10/0 средняя 
[As op]
-14.7 -17.4 80 -18  1006.1  -1.2  743  318           
06 14.02.11 090 (В) 10 км  слаб. снег  10/0 средняя 
[As op]
-14.1 -16.8 80 -18  1005.8  -0.2  743  317  -14.7       
09 14.02.11 100 (В) 2000 м  снег  10/0 средняя 
[As op]
-12.8 -15.5 80 -16  1004.4  -1.4  742  315           
12 14.02.11 080 (В) 2000 м  снег  10/0 средняя 
[As op]
-12.2 -14.9 80 -16  1003.4  -0.9  741  314           
15 14.02.11 090 (В) 4000 м  слаб. снег  10/10 600 м 
[Sc]
-12.4 -14.4 85 -14  1003.4  -0.1  741  314           
18 14.02.11 070 (В) 4000 м  слаб. снег  10/0 средняя 
[As op]
-12.6 -15.3 80 -16  1003.1  -0.3  741  314    -12.2     
21 14.02.11 060 (СВ) 10 км  {снег}  10/0 верхняя 
[Cs]
-13.4 -15.4 85 -17  1002.5  -0.5  740  315           
00 15.02.11 060 (СВ) 10 км  {снег}  9/0 средняя 
[As trans]
-15.1 -17 85 -17  1002.9  0.3  740  317           
03 15.02.11 050 (СВ) 10 км  слаб. снег  10/3 600 м средняя 
[Sc|As op]
-15.7 -18.4 80 -19  1003  0.1  741  318           
06 15.02.11 040 (СВ) >10 км  слаб. снег  10/0 средняя 
[As op]
-16.5 -19.1 80 -19  1004.1  0.9  741  319  -16.5    0.4     
09 15.02.11 040 (СВ) >10 км  слаб. снег  10/0 средняя 
[As trans]
-15.9 -19.3 75 -16  1004.5  0.4  742  319           
12 15.02.11 030 (СВ) >10 км  слаб. снег  10/0 средняя 
[As op]
-16.5 -19.9 75 -17  1005.3  0.8  742  320           
15 15.02.11 020 (С) 10 км  слаб. снег  10/0 средняя 
[As op]
-18.1 -21.4 76 -21  1006.7  1.3  743  322           
18 15.02.11 330 (СЗ) 10 км  слаб. снег  10/0 средняя 
[As op]
-20 -22.6 80 -20  1007.4  0.6  744  325    -15.7  0.3     
21 15.02.11 030 (СВ) 10 км  {снег}  ясно 
-21.9 -24.4 80 -22  1008.1  0.6  744  328           
00 16.02.11 020 (С) 10 км  {снег}  10/0 верхняя 
[Cs]
-22.2 -24.7 81 -23  1009.4  1.1  745  328           
03 16.02.11 010 (С) 10 км    10/0 
-23.2 -25.7 80 -24  1010.1  0.7  745  330           
06 16.02.11 010 (С) >10 км    8/0 средняя, верхняя 
[Ac lent|Ci fib]
-22.9 -24.8 85 -26  1010.8  0.7  746  330  -23.3    0.0     
09 16.02.11 290 (З) >10 км    6/0 средняя, верхняя 
[Ac lent|Ci fib]
-21.5 -24.7 75 -22  1011.3  0.6  746  328           
12 16.02.11 280 (З) >10 км    ясно 
-19.7 -23 74 -22  1011.6  0.5  747  326           
15 16.02.11 300 (СЗ) 10 км    4/0 средняя 
[Ac lent]
-19.5 -22.8 75 -22  1012  0.4  747  326           
18 16.02.11 300 (СЗ) 10 км  слаб. снег  10/0 средняя 
[As op]
-18.6 -21.2 80 -19  1012.4  0.4  747  325    -19.5       
21 16.02.11 310 (СЗ) 10 км  слаб. снег  10/0 средняя 
[As op]
-19.5 -22.1 79 -22  1012.2  -0.2  747  326           
00 17.02.11 тихо ()   10 км  слаб. снег  10/0 средняя 
[As op]
-20.2 -22.8 80 -20  1012.3  -0.1  747  327           
03 17.02.11 тихо ()   10 км  {снег}  ясно 
-22.5 -24.3 85 -23  1012.7  0.3  747  330           
06 17.02.11 300 (СЗ) 10 км  {снег}  5/0 верхняя 
[Ci fib]
-21.9 -23.7 86 -22  1012.8  0.2  747  329  -22.7    0.9     
09 17.02.11 020 (С) 10 км    10/0 верхняя 
[Ci fib]
-19.7 -23 74 -22  1013.3  0.7  748  326           
12 17.02.11 020 (С) 10 км    5/0 верхняя 
[Ci fib]
-18.5 -22.6 70 -21  1014.4  749  325           
15 17.02.11 020 (С) 10 км    5/0 верхняя 
[Ci fib]
-19.3 -22.6 75 -22  1015.8  1.4  750  327           
18 17.02.11 320 (СЗ) 10 км  слаб. снег  10/0 средняя 
[As op]
-19.3 -21.9 80 -20  1016.3  0.5  750  327    -18.4       
21 17.02.11 030 (СВ) 10 км  слаб. снег  10/0 средняя 
[As trans]
-21.5 -23.3 85 -22  1017.4  751  330           
00 18.02.11 300 (СЗ) 10 км  слаб. снег  10/0 средняя 
[As trans]
-22 -23.8 86 -22  1017.9  0.5  751  331           
03 18.02.11 340 (С) 10 км  слаб. снег  10/0 средняя 
[As trans]
-22.1 -24 85 -22  1018.7  0.7  752  331           
06 18.02.11 310 (СЗ) >10 км  {снег}  3/0 средняя 
[Ac lent]
-20.6 -22.5 85 -21  1019.7  753  330  -22.1    0.2     
09 18.02.11 350 (С) >10 км    ясно 
-19.3 -21.9 80 -22  1020.3  0.7  753  328           
12 18.02.11 280 (З) >10 км    ясно 
-16.7 -20.9 70 -19  1020.2  753  325           
15 18.02.11 300 (СЗ) 10 км    ясно 
-19.3 -22.6 75 -20    0.6  754  328           
18 18.02.11 300 (СЗ) 10 км    ясно 
-20.6 -23.1 81 -25  1021.3  0.3  754  330    -16.7  0.0     
21 18.02.11 300 (СЗ) 10 км    ясно 
-22.2 -24 85 -23  1021  -0.5  753  332           
00 19.02.11 300 (СЗ) 10 км  ледяные иглы{снег}  10/0 верхняя 
[Cs]
-22.6 -24.4 85 -26  1020.9  -0.1  753  333           
03 19.02.11 320 (СЗ) 10 км  слаб. снег  10/10 600 м 
[Sc]
-21.9 -23.7 86 -25  1019.9  -0.8  753  331           
06 19.02.11 330 (СЗ) 4000 м  слаб. снег  10/10 600 м 
[Sc]
-21.7 -23.5 85 -25  1020.3  0.4  753  331  -22.6    0.2     
09 19.02.11 280 (З) >10 км  слаб. снег  10/0 средняя 
[Ac As]
-20.3 -23.6 75 -23  1020.1  -0.2  753  329           
12 19.02.11 270 (З) >10 км  {снег}  8/0 верхняя 
[Ci]
-18.9 -23 70 -22  1020.1  0.1  753  328           
15 19.02.11 тихо ()   10 км    ясно 
-20.3 -23.6 75 -20  1021.2  754  330           
18 19.02.11 тихо ()   10 км    ясно 
-21.6 -24.1 80 -22  1022  0.8  754  332    -18.9  0.2     
21 19.02.11 тихо ()   10 км    ясно 
-23.6 -26.1 80 -24  1022.7  0.5  755  335           
00 20.02.11 тихо ()   10 км  слаб. снег  10/0 средняя 
[As op]
-25.9 -28.4 80 -26  1023.5  0.7  755  338           
03 20.02.11 тихо ()   10 км  {снег} [диам. изморози 1 мм]  10/0 верхняя 
[Ci fib]
-24.3 -26.1 85 -24  1024.8  1.2  756  336           
06 20.02.11 тихо ()   >10 км  {снег}  ясно 
-23.6 -25.5 85 -24  1026  1.4  757  336  -25.9    0.0     
09 20.02.11 020 (С) >10 км    ясно 
-19.1 -22.4 76 -19  1027.3  1.5  758  330           
12 20.02.11 010 (С) >10 км    ясно 
-18.9 -23 70 -19  1028.4  1.1  759  330           
15 20.02.11 тихо ()   10 км    ясно 
-21.2 -24.4 75 -21  1030.2  1.6  760  334           
18 20.02.11 090 (В) 10 км    ясно 
-21.7 -24.9 75 -22  1031.8  1.6  761  335    -18.9       
21 20.02.11 тихо ()   10 км    ясно 
-25.5 -28 79 -26  1033.9  1.8  763  341           
00 21.02.11 тихо ()   10 км    ясно 
-27.1 -29.4 81 -27  1035.3  1.2  764  344           
03 21.02.11 тихо ()   10 км    ясно 
-28.6 -31 79 -29  1037  1.6  765  346           
06 21.02.11 тихо ()   10 км    ясно 
-25.8 -28.2 80 -26  1038.5  1.8  766  343  -30         
09 21.02.11 230 (ЮЗ) 10 км    ясно 
-21.1 -25.1 70 -21  1039.4  1.1  767  337           
12 21.02.11 040 (СВ) 10 км    ясно 
-18.7 -23.6 65 -19  1040.3  768  334           
15 21.02.11 030 (СВ) 10 км    ясно 
-19.8 -24.7 65 -20  1040.8  0.5  768  335           
18 21.02.11 300 (СЗ) 10 км    ясно 
-22.7 -25.2 80 -23  1042.6  1.5  769  340    -18.2       
21 21.02.11 тихо ()   10 км    ясно 
-24.9 -27.4 80 -25  1043.2  0.5  770  343           
00 22.02.11 тихо ()   10 км    ясно 
-25.4 -27.2 85 -25  1044.6  1.3  771  344           
03 22.02.11 тихо ()   10 км    ясно 
-26.6 -29 80 -27  1045.5  0.8  771  346           
06 22.02.11 300 (СЗ) >10 км    ясно 
-25.9 -28.4 80 -26  1046  0.6  772  345  -26.6         
09 22.02.11 310 (СЗ) 10 км  дымка  ясно 
-22.1 -24.7 80 -22  1046.1  0.3  772  340           
12 22.02.11 тихо ()   >10 км    ясно 
-18.3 -23.3 65 -18  1046.2  0.3  772  335           
15 22.02.11 тихо ()   10 км    ясно 
-20 -24.1 70 -20  1046.2  772  337           
18 22.02.11 320 (СЗ) 10 км    ясно 
-20.7 -24 75 -21  1046.5  0.2  772  338    -18       
21 22.02.11 310 (СЗ) 10 км    ясно 
-22.2 -24.7 81 -23  1047.3  0.6  773  341           
00 23.02.11 тихо ()   10 км    ясно 
-23.7 -25.5 85 -24  1048.4  1.1  774  343           
03 23.02.11 тихо ()   10 км    ясно 
-24.1 -26 85 -24  1048.7  0.2  774  344           
06 23.02.11 320 (СЗ) >10 км  [диам. изморози 3 мм]  ясно 
-24.1 -26 85 -25  1050.4  1.7  775  344  -24.8         
09 23.02.11 тихо ()   >10 км    3/0 верхняя 
[Ci fib]
-19.4 -22 80 -19  1050.6  0.5  775  338           
12 23.02.11 320 (СЗ) >10 км    3/0 верхняя 
[Ci fib]
-16.1 -21.2 65 -16  1050.7  0.4  776  334           
15 23.02.11 тихо ()   10 км    3/0 верхняя 
[Ci fib]
-19.1 -23.2 70 -19  1051.6  0.6  776  338           
18 23.02.11 тихо ()   10 км    ясно 
-20.4 -22.9 80 -20  1051.5  -0.2  776  340    -14.1       
21 23.02.11 тихо ()   10 км    ясно 
-23.3 -25.8 80 -23  1052.8  1.2  777  344           
00 24.02.11 тихо ()   10 км  [диам. изморози 1 мм]  ясно 
-24.7 -26.5 84 -25  1053.4  0.4  777  346           
03 24.02.11 тихо ()   10 км  [диам. изморози 2 мм]  ясно 
-27.1 -28.8 85 -27  1053.8  0.3  777  350           
06 24.02.11 тихо ()   >10 км  [диам. изморози 2 мм]  ясно 
-23.3 -25.1 85 -23  1055.2  1.6  779  345  -27.6         
09 24.02.11 180 (Ю) >10 км  [диам. изморози 2 мм]  ясно 
-17.9 -22.9 65 -20  1054.7  -0.1  779  337           
12 24.02.11 190 (Ю) >10 км    ясно 
-15.9 -21.9 60 -18  1054.7  0.1  779  335           
15 24.02.11 тихо ()   10 км    ясно 
-19.7 -23.8 70 -20  1055.3  0.3  779  340           
18 24.02.11 130 (ЮВ) 10 км    ясно 
-22.3 -25.5 75 -23  1055.3  -0.2  779  343    -15.9       
21 24.02.11 тихо ()   10 км    ясно 
-22.1 -24.7 80 -22  1055  -0.3  779  343           
00 25.02.11 тихо ()   10 км    ясно 
-25 -27.4 80 -25  1054.7  -0.5  778  347           
03 25.02.11 тихо ()   10 км  [диам. изморози 1 мм]  ясно 
-26 -27.7 85 -26  1055.6  0.9  779  349           
06 25.02.11 150 (ЮВ) 10 км  [диам. изморози 2 мм]  10/0 верхняя 
[Cs]
-24.8 -26.6 85 -25  1056.4  0.8  779  347  -27.1         
09 25.02.11 180 (Ю) >10 км  [диам. изморози 5 мм]  10/0 верхняя 
[Ci fib]
-20.9 -22.8 84 -21  1056  -0.1  779  342           
12 25.02.11 170 (Ю) 10 км    10/0 верхняя 
[Ci fib]
-19.1 -22.4 76 -19  1055.6  -0.3  779  339           
15 25.02.11 150 (ЮВ) 10 км    10/0 верхняя 
[Ci fib]
-21.5 -24.7 75 -22  1055  -0.7  779  342           
18 25.02.11 150 (ЮВ) 10 км    10/0 верхняя 
[Ci fib]
-21.2 -23.7 81 -22  1054.7  -0.3  778  342    -18.6       
21 25.02.11 150 (ЮВ) 10 км  в посл. час снег  10/0 верхняя 
[Ci fib]
-22.3 -24.1 84 -23  1054.1  -0.6  778  343           
00 26.02.11 160 (Ю) 4000 м  дымка  10/0 верхняя 
[Ci fib]
-23.1 -24.9 84 -24  1053.9  -0.2  778  344           
03 26.02.11 170 (Ю) 4000 м  дымка [диам. изморози 2 мм]  10/0 верхняя 
[Ci fib]
-24.1 -26 85 -25  1053.8  -0.2  778  345           
06 26.02.11 150 (ЮВ) 4000 м  дымка [диам. изморози 2 мм]  10/0 верхняя 
[Ci fib]
-25 -26.7 85 -28  1054.7  0.7  778  347  -26.9         
09 26.02.11 170 (Ю) 4000 м  [диам. изморози 2 мм]  10/0 верхняя 
[Ci fib]
-20.4 -22.9 80 -21  1053.9  -0.4  778  340           
12 26.02.11 160 (Ю) 10 км    10/0 верхняя 
[Ci fib]
-18.1 -23.1 65 -21  1052.8  -0.9  777  337           
15 26.02.11 150 (ЮВ) 10 км    10/0 верхняя 
[Ci fib]
-19.4 -24.3 65 -22  1052.5  -0.4  777  339           
18 26.02.11 тихо ()   10 км    10/0 верхняя 
[Ci fib]
-20.7 -24.7 70 -21  1052.2  -0.4  777  340    -17.9       
21 26.02.11 тихо ()   10 км    10/0 верхняя 
[Ci fib]
-21.8 -25 76 -22  1051.9  -0.3  776  342           
00 27.02.11 тихо ()   10 км    10/0 верхняя 
[Ci fib]
-22.3 -24.8 80 -22  1052.4  0.4  777  343           
03 27.02.11 190 (Ю) 10 км    10/0 верхняя 
[Ci fib]
-23.9 -26.4 80 -24  1052.3  -0.1  777  345           
06 27.02.11 тихо ()   >10 км    10/0 верхняя 
[Ci fib]
-20.3 -22.8 80 -20  1052.8  0.6  777  340  -24.4         
09 27.02.11 тихо ()   >10 км    10/0 
[]
-14.1 -21.2 55 -14  1052.5  0.1  777  332           
12 27.02.11 200 (Ю) >10 км    10/0 верхняя 
[Ci fib]
-14 -21.1 55 -14  1052.9  0.5  777  332           
15 27.02.11 тихо ()   10 км    1/0 верхняя 
[Ci fib]
-16.7 -21.7 65 -17  1053  -0.1  777  335           
18 27.02.11 120 (ЮВ) 10 км    ясно верхняя 
[Ci fib]
-18.7 -21.3 80 -19  1052.5    777  338    -13.8       
21 27.02.11 110 (В) 10 км    ясно 
-20.9 -22.8 84 -21  1051.9  -0.7  776  340           
00 28.02.11 130 (ЮВ) 10 км    ясно 
-21.5 -23.3 85 -22  1052.4  0.5  777  341           
03 28.02.11 тихо ()   10 км    ясно 
-23.6 -25.5 85 -24  1052.7  0.2  777  344           
06 28.02.11 тихо ()   >10 км    3/0 средняя 
[Ac lent]
-19.7 -22.3 80 -20  1052.7  0.2  777  339  -24.7         
09 28.02.11 170 (Ю) >10 км    8/0 средняя, верхняя 
[Ac lent|Ci fib]
-17.8 -21.9 70 -18  1052.7  0.2  777  337           
12 28.02.11 160 (Ю) >10 км    3/0 средняя 
[Ac lent]
-15 -20.1 65 -15  1051.5  -1.1  776  333           
15 28.02.11 тихо ()   10 км    3/0 средняя 
[Ac lent]
-18 -22.1 70 -18  1050.6  -1  776  336           
18 28.02.11 тихо ()   10 км    ясно 
-20.8 -23.3 80 -21  1049.3  -1.6  774  339    -15       
21 28.02.11 тихо ()   10 км    ясно 
-21.2 -23 85 -21  1047.6  -1.6  773  339           
00 01.03.11 160 (Ю) 10 км    ясно 
-22.3 -24.1 84 -23  1046.6  -1.2  772  341           
03 01.03.11 170 (Ю) 10 км  [диам. изморози 1 мм]  ясно 
-23.9 -25.7 85 -27  1045.8  -0.8  772  343           
06 01.03.11 тихо ()   10 км  [диам. изморози 2 мм]  5/0 верхняя 
[Ci fib]
-21.1 -22.9 85 -21  1044.4  -1.2  771  338  -24.1         
09 01.03.11 170 (Ю) >10 км  [диам. изморози 3 мм]  ясно 
-13.3 -18.5 65 -13  1042.2  -1.6  770  327           
12 01.03.11 270 (З) >10 км    3/0 верхняя 
[Ci fib]
-10.9 -18.2 55 -11  1040.2  -1.9  768  324           
15 01.03.11 160 (Ю) 10 км    4/0 средняя, верхняя 
[Ac lent|Ci fib]
-15.9 -20.1 70 -16  1038.9  -1.6  767  330           
18 01.03.11 170 (Ю) 10 км    ясно 
-16.3 -19.7 75 -16  1038.2  -0.7  766  330    -10.7       
21 01.03.11 тихо ()   10 км    ясно 
-18 -19.9 85 -18  1036.6  -1.6  765  332           
00 02.03.11 тихо ()   10 км    6/0 средняя 
[Ac und]
-23.7 -25.5 85 -24  1036.6  -0.4  765  339           
03 02.03.11 тихо ()   10 км  {снег}  10/6 600 м средняя 
[Sc|Ac cast]
-16.3 -18.2 85 -16  1035.3  -0.9  764  329           
06 02.03.11 320 (СЗ) >10 км  слаб. снег  10/10 600 м 
[Sc]
-15.3 -18 80 -15  1035.1  -0.1  764  328  -16.9    0.0     
09 02.03.11 300 (СЗ) >10 км  {снег}  ясно 
-11.7 -17 65 -12  1034  -0.8  764  323           
12 02.03.11 320 (СЗ) >10 км  {снег}  ясно 
-9 -15.7 58 -9  1032.5  -1.3  763  319           
15 02.03.11 290 (З) 10 км    4/0 средняя 
[Ac lent]
-11.1 -16.4 65 -11  1032.4  -0.3  762  322           
18 02.03.11 тихо ()   10 км    9/0 средняя 
[Ac trans]
-14.6 -18.1 74 -15  1032.1  -0.5  762  326    -9  0.0     
21 02.03.11 тихо ()   10 км  слаб. снег  10/10 600 м 
[Sc]
-13.6 -16.3 80 -14  1030.9  -1.1  761  324           
00 03.03.11 тихо ()   10 км  слаб. снег  10/10 600 м 
[Sc]
-16.5 -17.8 89 -17  1031.4  0.3  761  328           
03 03.03.11 тихо ()   10 км  слаб. снег  10/10 300 м 
[Sc]
-15 -17 85 -15  1031.1  -0.2  761  326           
06 03.03.11 тихо ()   >10 км  слаб. снег  10/10 600 м 
[Sc]
-14.4 -16.4 85 -14  1031.3  0.2  761  325  -16.5    0.0     
09 03.03.11 тихо ()   >10 км  {снег}  10/0 средняя 
[Ac cast]
-9.6 -14.2 69 -10  1030.5  -0.4  761  319           
12 03.03.11 150 (ЮВ) >10 км  {снег}  9/0 средняя 
[Ac cast]
-8.6 -14.5 62 -8  1029.5  -1  760  318           
15 03.03.11 160 (Ю) 10 км    4/0 верхняя 
[Ci fib]
-12.4 -15.9 75 -12  1028.7  -1.1  760  322           
18 03.03.11 160 (Ю) 10 км    ясно 
-15.7 -17 90 -18  1026.5  -2.2  758  325    -8.6  0.0     
21 03.03.11 170 (Ю) 10 км    ясно 
-17.6 -18.8 90 -18  1024.9  -1.7  757  327           
00 04.03.11 160 (Ю) 10 км  [диам. изморози 1 мм]  ясно 
-18.6 -19.8 91 -21  1021.7  -3.3  754  328           
03 04.03.11 160 (Ю) 10 км  ледяные иглы{снег} [диам. изморози 2 мм]  ясно 
-19.7 -20.9 90 -22  1019.3  -2.4  752  328           
06 04.03.11 200 (Ю) >10 км  {снег} [диам. изморози 2 мм]  9/3 1000 м средняя 
[Sc|Ac lent]
-17 -18.2 90 -17  1016.1  -3  750  324  -20.1    0.0     
Время (UTC), дата Ветер
(°,м/с) 
Видим.   Явления Облачность Т
(°С)
Тd
(°С)
f(%) Тe
(°С)
Pmin
(гПа)
dP
(гПа)
Po
(мм)
O2
(г/м3)
Тmin Tmax R s Состояние
почвы